Home > Weather > Illnau-Effretikon > Past weeks

Flag for Switzerland Past Weather in Illnau-Effretikon, Zurich, Switzerland — Yesterday and Last 2 Weeks

Now
74 °F

Passing clouds.


Feels Like: 77 °F
Forecast: 50 / 78 °F
Wind: 5 mph from Southwest

Location: Zuerich-Fluntern

Current Time: May 26, 2016 at 2:39:48 PM

Latest Report: May 26, 2016 at 2:00 PM


Visibility: N/A

Pressure: 29.91 "Hg (28.19 "Hg at 514m altitude)

Humidity: 43%

Dew Point: 49 °F

Location of Illnau-EffretikonLocation

Past Weather in Illnau-Effretikon — Graph

°F

Illnau-Effretikon Temperature Yesterday

Maximum temperature yesterday: 68 °F (at 4:00 PM)
Minimum temperature yesterday: 46 °F (at 5:00 AM)
Average temperature yesterday: 56 °F

High & Low Weather Summary for the Past Weeks

 TemperatureHumidityPressure
High78 °F (May 22, 2:00 PM)97% (May 13, 12:00 PM)30.23 "Hg (May 13, 12:00 PM)
Low42 °F (May 23, 10:00 AM)28% (May 21, 4:00 PM)29.47 "Hg (May 11, 7:00 PM)
Average53 °F77%29.92 "Hg
* Reported May 11 1:00 PM — May 26 1:00 PM, Illnau-Effretikon, Weather by CustomWeather, © 2016

Note: Actual official high and low records may vary slightly from our data, if they occured in-between our weather recording intervals... More about our weather records

Advertising

Illnau-Effretikon Weather History for the Previous 24 Hours

Scroll right to see more
 ConditionsComfort  
Time TempWeatherWind HumidityBarometerVisibility
1:00 PM
Thu, May 26
71 °FMild.2 mph51%29.93 "HgN/A
11:00 AM67 °FMild.2 mph64%29.96 "HgN/A
10:00 AM62 °FCool.3 mph69%29.98 "HgN/A
9:00 AM59 °FCool.2 mph77%30.01 "HgN/A
8:00 AM56 °FPassing clouds.1 mph84%30.01 "HgN/A
7:00 AM53 °FCool.1 mph90%30.02 "HgN/A
6:00 AM52 °FCool.No wind90%30.02 "HgN/A
5:00 AM53 °FCool.N/A89%30.01 "HgN/A
3:00 AM53 °FCool.1 mph88%30.01 "HgN/A
2:00 AM53 °FCool.No wind87%30.01 "HgN/A
1:00 AM54 °FCool.1 mph85%30.00 "HgN/A
12:00 AM59 °FCool.2 mph72%29.98 "HgN/A
11:00 PM
Wed, May 25
60 °FCool.3 mph68%29.97 "HgN/A
10:00 PM58 °FCool.3 mph80%29.97 "HgN/A
9:00 PM62 °FRefreshingly cool.6 mph55%29.94 "HgN/A
8:00 PM63 °FOvercast.6 mph50%29.93 "HgN/A
7:00 PM66 °FMild.6 mph46%29.91 "HgN/A
6:00 PM66 °FMild.3 mph48%29.90 "HgN/A
5:00 PM67 °FMild.6 mph46%29.89 "HgN/A
4:00 PM68 °FMild.3 mph46%29.88 "HgN/A
3:00 PM65 °FMild.3 mph46%29.89 "HgN/A
2:00 PM65 °FMild.3 mph66%29.90 "HgN/A
Weather by CustomWeather, © 2016

See weather overviewHow to use our weather pages